owner,sensor,date,latitude,longitude,vertical_datum,direction_of_sea_water_velocity,sea_water_speed,upward_sea_water_velocity,qcFlag 
ADCP,ioos:station:wmo:42379:1,2009-07-01T00:13:00Z,27.3620,-90.1810,73.1,341.0,41.1,0.6,'11111222,11111222,11111222' 
ADCP,ioos:station:wmo:42379:1,2009-07-01T00:33:00Z,27.3620,-90.1810,73.1,349.0,28.1,4.8,'11111222,11111222,11111222' 
ADCP,ioos:station:wmo:42379:1,2009-07-01T00:53:00Z,27.3620,-90.1810,73.1,347.0,13.0,3.4,'11111222,11111222,11111222' 
ADCP,ioos:station:wmo:42379:1,2009-07-01T01:13:00Z,27.3620,-90.1810,73.1,327.0,4.2,3.6,'11133222,11111222,11111222' 
ADCP,ioos:station:wmo:42379:1,2009-07-01T01:33:00Z,27.3620,-90.1810,73.1,325.0,4.4,3.3,'11133222,11111222,11111222' 
ADCP,ioos:station:wmo:42379:1,2009-07-01T01:53:00Z,27.3620,-90.1810,73.1,157.0,5.7,4.8,'11133222,11111222,11111222' 
ADCP,ioos:station:wmo:42379:1,2009-07-01T02:13:00Z,27.3620,-90.1810,73.1,162.0,12.2,6.7,'11111222,11111222,11111222' 
ADCP,ioos:station:wmo:42379:1,2009-07-01T02:33:00Z,27.3620,-90.1810,73.1,132.0,2.5,5.0,'11133222,11111222,11111222' 
ADCP,ioos:station:wmo:42379:1,2009-07-01T02:53:00Z,27.3620,-90.1810,73.1,173.0,15.5,4.6,'11111222,11111222,11111222' 
ADCP,ioos:station:wmo:42379:1,2009-07-01T03:13:00Z,27.3620,-90.1810,73.1,297.0,2.7,5.0,'11133222,11111222,11111222' 
ADCP,ioos:station:wmo:42379:1,2009-07-01T03:33:00Z,27.3620,-90.1810,73.1,176.0,9.7,4.0,'11133222,11111222,11111222' 
ADCP,ioos:station:wmo:42379:1,2009-07-01T03:53:00Z,27.3620,-90.1810,73.1,167.0,18.9,4.2,'11111222,11111222,11111222' 
ADCP,ioos:station:wmo:42379:1,2009-07-01T04:13:00Z,27.3620,-90.1810,73.1,160.0,20.8,5.5,'11111222,11111222,11111222' 
ADCP,ioos:station:wmo:42379:1,2009-07-01T04:33:00Z,27.3620,-90.1810,73.1,162.0,19.2,4.8,'11111222,11111222,11111222' 
ADCP,ioos:station:wmo:42379:1,2009-07-01T04:53:00Z,27.3620,-90.1810,73.1,153.0,20.4,2.0,'11111222,11111222,11111222' 
ADCP,ioos:station:wmo:42379:1,2009-07-01T05:13:00Z,27.3620,-90.1810,73.1,159.0,18.1,2.8,'11111222,11111222,11111222' 
ADCP,ioos:station:wmo:42379:1,2009-07-01T05:33:00Z,27.3620,-90.1810,73.1,193.0,16.5,6.8,'11111222,11111222,11111222' 
ADCP,ioos:station:wmo:42379:1,2009-07-01T05:53:00Z,27.3620,-90.1810,73.1,181.0,15.1,7.2,'11111222,11111222,11111222' 
ADCP,ioos:station:wmo:42379:1,2009-07-01T06:13:00Z,27.3620,-90.1810,73.1,171.0,15.5,5.7,'11111222,11111222,11111222' 
ADCP,ioos:station:wmo:42379:1,2009-07-01T06:33:00Z,27.3620,-90.1810,73.1,169.0,11.2,1.2,'11111222,11111222,11111222' 
ADCP,ioos:station:wmo:42379:1,2009-07-01T06:53:00Z,27.3620,-90.1810,73.1,158.0,12.1,3.4,'11111222,11111222,11111222' 
ADCP,ioos:station:wmo:42379:1,2009-07-01T07:13:00Z,27.3620,-90.1810,73.1,165.0,13.9,5.5,'11111222,11111222,11111222' 
ADCP,ioos:station:wmo:42379:1,2009-07-01T07:33:00Z,27.3620,-90.1810,73.1,190.0,11.9,9.5,'11111222,11111222,11111222' 
ADCP,ioos:station:wmo:42379:1,2009-07-01T07:53:00Z,27.3620,-90.1810,73.1,191.0,13.5,10.0,'11111222,11111222,11111222' 
ADCP,ioos:station:wmo:42379:1,2009-07-01T08:13:00Z,27.3620,-90.1810,73.2,179.0,22.3,12.0,'11111222,11111222,11111222' 
ADCP,ioos:station:wmo:42379:1,2009-07-01T08:33:00Z,27.3620,-90.1810,73.2,177.0,13.8,8.6,'11111222,11111222,11111222' 
ADCP,ioos:station:wmo:42379:1,2009-07-01T08:53:00Z,27.3620,-90.1810,73.2,190.0,13.2,8.5,'11111222,11111222,11111222' 
ADCP,ioos:station:wmo:42379:1,2009-07-01T09:13:00Z,27.3620,-90.1810,73.2,183.0,14.4,7.8,'11111222,11111222,11111222' 
ADCP,ioos:station:wmo:42379:1,2009-07-01T09:33:00Z,27.3620,-90.1810,73.2,185.0,11.1,7.6,'11111222,11111222,11111222' 
ADCP,ioos:station:wmo:42379:1,2009-07-01T09:53:00Z,27.3620,-90.1810,73.2,196.0,12.7,8.7,'11111222,11111222,11111222' 
ADCP,ioos:station:wmo:42379:1,2009-07-01T10:13:00Z,27.3620,-90.1810,73.2,187.0,14.0,6.5,'11111222,11111222,11111222' 
ADCP,ioos:station:wmo:42379:1,2009-07-01T10:33:00Z,27.3620,-90.1810,73.2,182.0,11.6,5.3,'11111222,11111222,11111222' 
ADCP,ioos:station:wmo:42379:1,2009-07-01T10:53:00Z,27.3620,-90.1810,73.2,172.0,11.8,4.9,'11111222,11111222,11111222' 
ADCP,ioos:station:wmo:42379:1,2009-07-01T11:13:00Z,27.3620,-90.1810,73.2,176.0,16.4,5.5,'11111222,11111222,11111222' 
ADCP,ioos:station:wmo:42379:1,2009-07-01T11:33:00Z,27.3620,-90.1810,73.2,164.0,16.0,5.7,'11111222,11111222,11111222' 
ADCP,ioos:station:wmo:42379:1,2009-07-01T11:53:00Z,27.3620,-90.1810,73.2,171.0,13.6,9.9,'11111222,11111222,11111222' 
ADCP,ioos:station:wmo:42379:1,2009-07-01T12:13:00Z,27.3620,-90.1810,73.2,170.0,16.9,10.5,'11111222,11111222,11111222' 
ADCP,ioos:station:wmo:42379:1,2009-07-01T12:33:00Z,27.3620,-90.1810,73.2,162.0,8.4,7.7,'11133222,11111222,11111222' 
ADCP,ioos:station:wmo:42379:1,2009-07-01T12:53:00Z,27.3620,-90.1810,73.1,177.0,6.8,7.3,'11133222,11111222,11111222' 
ADCP,ioos:station:wmo:42379:1,2009-07-01T13:13:00Z,27.3620,-90.1810,73.1,175.0,15.1,6.2,'11111222,11111222,11111222' 
ADCP,ioos:station:wmo:42379:1,2009-07-01T13:33:00Z,27.3620,-90.1810,73.1,178.0,17.1,4.9,'11111222,11111222,11111222' 
ADCP,ioos:station:wmo:42379:1,2009-07-01T13:53:00Z,27.3620,-90.1810,73.1,172.0,18.4,6.8,'11111222,11111222,11111222' 
ADCP,ioos:station:wmo:42379:1,2009-07-01T14:13:00Z,27.3620,-90.1810,73.1,169.0,34.2,5.7,'11111222,11111222,11111222' 
ADCP,ioos:station:wmo:42379:1,2009-07-01T14:33:00Z,27.3620,-90.1810,73.1,172.0,30.7,8.4,'11111222,11111222,11111222' 
ADCP,ioos:station:wmo:42379:1,2009-07-01T14:53:00Z,27.3620,-90.1810,73.1,176.0,24.8,4.9,'11111222,11111222,11111222' 
ADCP,ioos:station:wmo:42379:1,2009-07-01T15:13:00Z,27.3620,-90.1810,73.1,169.0,21.1,6.2,'11111222,11111222,11111222' 
ADCP,ioos:station:wmo:42379:1,2009-07-01T15:33:00Z,27.3620,-90.1810,73.1,175.0,26.6,8.3,'11111222,11111222,11111222' 
ADCP,ioos:station:wmo:42379:1,2009-07-01T15:53:00Z,27.3620,-90.1810,73.1,172.0,29.8,6.3,'11111222,11111222,11111222' 
ADCP,ioos:station:wmo:42379:1,2009-07-01T16:13:00Z,27.3620,-90.1810,73.1,349.0,25.8,3.4,'11111222,11111222,11111222' 
ADCP,ioos:station:wmo:42379:1,2009-07-01T16:33:00Z,27.3620,-90.1810,73.1,347.0,40.7,0.9,'11111222,11111222,11111222' 
ADCP,ioos:station:wmo:42379:1,2009-07-01T16:53:00Z,27.3620,-90.1810,73.1,339.0,38.6,-1.1,'11111222,11111222,11144222' 
ADCP,ioos:station:wmo:42379:1,2009-07-01T17:13:00Z,27.3620,-90.1810,73.1,340.0,45.8,-4.7,'11111222,11111222,11144222' 
ADCP,ioos:station:wmo:42379:1,2009-07-01T17:33:00Z,27.3620,-90.1810,73.1,340.0,43.6,-5.4,'11111222,11111222,11144222' 
ADCP,ioos:station:wmo:42379:1,2009-07-01T17:53:00Z,27.3620,-90.1810,73.1,350.0,28.4,-0.3,'11111222,11111222,11144222' 
ADCP,ioos:station:wmo:42379:1,2009-07-01T18:13:00Z,27.3620,-90.1810,73.1,336.0,27.2,0.8,'11111222,11111222,11111222' 
ADCP,ioos:station:wmo:42379:1,2009-07-01T18:33:00Z,27.3620,-90.1810,73.1,335.0,24.4,1.1,'11111222,11111222,11111222' 
ADCP,ioos:station:wmo:42379:1,2009-07-01T18:53:00Z,27.3620,-90.1810,73.1,332.0,15.8,3.7,'11111222,11111222,11111222' 
ADCP,ioos:station:wmo:42379:1,2009-07-01T19:13:00Z,27.3620,-90.1810,73.1,350.0,24.3,-3.1,'11111222,11111222,11144222' 
ADCP,ioos:station:wmo:42379:1,2009-07-01T19:33:00Z,27.3620,-90.1810,73.1,339.0,21.5,4.0,'11111222,11111222,11111222' 
ADCP,ioos:station:wmo:42379:1,2009-07-01T19:53:00Z,27.3620,-90.1810,73.1,137.0,7.9,-0.1,'11133222,11111222,11144222' 
ADCP,ioos:station:wmo:42379:1,2009-07-01T20:13:00Z,27.3620,-90.1810,73.1,347.0,14.6,-1.8,'11111222,11111222,11144222' 
ADCP,ioos:station:wmo:42379:1,2009-07-01T20:33:00Z,27.3620,-90.1810,73.1,351.0,41.0,-2.6,'11111222,11111222,11144222' 
ADCP,ioos:station:wmo:42379:1,2009-07-01T20:53:00Z,27.3620,-90.1810,73.1,347.0,37.7,-8.2,'11111222,11111222,11144222' 
ADCP,ioos:station:wmo:42379:1,2009-07-01T21:13:00Z,27.3620,-90.1810,73.1,357.0,20.4,1.3,'11111222,11111222,11111222' 
ADCP,ioos:station:wmo:42379:1,2009-07-01T21:33:00Z,27.3620,-90.1810,73.1,358.0,41.2,-4.3,'11111222,11111222,11144222' 
ADCP,ioos:station:wmo:42379:1,2009-07-01T21:53:00Z,27.3620,-90.1810,73.1,353.0,31.9,-7.6,'11111222,11111222,11144222' 
ADCP,ioos:station:wmo:42379:1,2009-07-01T22:13:00Z,27.3620,-90.1810,73.1,138.0,12.2,4.2,'11111222,11111222,11111222' 
ADCP,ioos:station:wmo:42379:1,2009-07-01T22:33:00Z,27.3620,-90.1810,73.1,327.0,12.6,-0.8,'11111222,11111222,11144222' 
ADCP,ioos:station:wmo:42379:1,2009-07-01T22:53:00Z,27.3620,-90.1810,73.1,309.0,3.6,-0.8,'11133222,11111222,11144222' 
ADCP,ioos:station:wmo:42379:1,2009-07-01T23:13:00Z,27.3620,-90.1810,73.1,320.0,5.2,-3.2,'11133222,11111222,11144222' 
ADCP,ioos:station:wmo:42379:1,2009-07-01T23:33:00Z,27.3620,-90.1810,73.1,269.0,4.4,-1.4,'11133222,11111222,11144222' 
ADCP,ioos:station:wmo:42379:1,2009-07-01T23:53:00Z,27.3620,-90.1810,73.1,176.0,9.5,1.1,'11133222,11111222,11111222' 
ADCP,ioos:station:wmo:42379:1,2009-07-02T00:13:00Z,27.3620,-90.1810,73.1,186.0,6.5,0.3,'11133222,11111222,11111222' 
ADCP,ioos:station:wmo:42379:1,2009-07-02T00:33:00Z,27.3620,-90.1810,73.1,185.0,18.0,-0.8,'11111222,11111222,11144222' 
ADCP,ioos:station:wmo:42379:1,2009-07-02T00:53:00Z,27.3620,-90.1810,73.1,180.0,17.9,-0.1,'11111222,11111222,11144222' 
ADCP,ioos:station:wmo:42379:1,2009-07-02T01:13:00Z,27.3620,-90.1810,73.1,182.0,15.6,0.4,'11111222,11111222,11111222' 
ADCP,ioos:station:wmo:42379:1,2009-07-02T01:33:00Z,27.3620,-90.1810,73.1,183.0,12.3,-0.8,'11111222,11111222,11144222' 
ADCP,ioos:station:wmo:42379:1,2009-07-02T01:53:00Z,27.3620,-90.1810,73.1,191.0,10.8,0.4,'11111222,11111222,11111222' 
ADCP,ioos:station:wmo:42379:1,2009-07-02T02:13:00Z,27.3620,-90.1810,73.1,239.0,9.6,-0.5,'11133222,11111222,11144222' 
ADCP,ioos:station:wmo:42379:1,2009-07-02T02:33:00Z,27.3620,-90.1810,73.1,196.0,14.8,0.5,'11111222,11111222,11111222' 
ADCP,ioos:station:wmo:42379:1,2009-07-02T02:53:00Z,27.3620,-90.1810,73.1,196.0,14.1,1.0,'11111222,11111222,11111222' 
ADCP,ioos:station:wmo:42379:1,2009-07-02T03:13:00Z,27.3620,-90.1810,73.1,179.0,21.6,2.5,'11111222,11111222,11111222' 
ADCP,ioos:station:wmo:42379:1,2009-07-02T03:33:00Z,27.3620,-90.1810,73.1,191.0,18.0,-0.6,'11111222,11111222,11144222' 
ADCP,ioos:station:wmo:42379:1,2009-07-02T03:53:00Z,27.3620,-90.1810,73.1,184.0,25.5,1.0,'11111222,11111222,11111222' 
ADCP,ioos:station:wmo:42379:1,2009-07-02T04:13:00Z,27.3620,-90.1810,73.1,178.0,26.9,3.0,'11111222,11111222,11111222' 
ADCP,ioos:station:wmo:42379:1,2009-07-02T04:33:00Z,27.3620,-90.1810,73.1,174.0,28.7,1.9,'11111222,11111222,11111222' 
ADCP,ioos:station:wmo:42379:1,2009-07-02T04:53:00Z,27.3620,-90.1810,73.1,178.0,19.5,2.4,'11111222,11111222,11111222' 
ADCP,ioos:station:wmo:42379:1,2009-07-02T05:13:00Z,27.3620,-90.1810,73.1,170.0,26.6,2.0,'11111222,11111222,11111222' 
ADCP,ioos:station:wmo:42379:1,2009-07-02T05:33:00Z,27.3620,-90.1810,73.1,173.0,25.5,2.7,'11111222,11111222,11111222' 
ADCP,ioos:station:wmo:42379:1,2009-07-02T05:53:00Z,27.3620,-90.1810,73.1,187.0,22.6,5.3,'11111222,11111222,11111222' 
ADCP,ioos:station:wmo:42379:1,2009-07-02T06:13:00Z,27.3620,-90.1810,73.1,230.0,13.1,5.2,'11111222,11111222,11111222' 
ADCP,ioos:station:wmo:42379:1,2009-07-02T06:33:00Z,27.3620,-90.1810,73.1,203.0,17.3,6.0,'11111222,11111222,11111222' 
ADCP,ioos:station:wmo:42379:1,2009-07-02T06:53:00Z,27.3620,-90.1810,73.1,227.0,8.6,5.9,'11133222,11111222,11111222' 
ADCP,ioos:station:wmo:42379:1,2009-07-02T07:13:00Z,27.3620,-90.1810,73.1,206.0,12.2,4.7,'11111222,11111222,11111222' 
ADCP,ioos:station:wmo:42379:1,2009-07-02T07:33:00Z,27.3620,-90.1810,73.1,192.0,10.8,5.5,'11111222,11111222,11111222' 
ADCP,ioos:station:wmo:42379:1,2009-07-02T07:53:00Z,27.3620,-90.1810,73.1,188.0,10.7,7.1,'11111222,11111222,11111222' 
ADCP,ioos:station:wmo:42379:1,2009-07-02T08:13:00Z,27.3620,-90.1810,73.1,175.0,10.6,7.9,'11111222,11111222,11111222' 
ADCP,ioos:station:wmo:42379:1,2009-07-02T08:33:00Z,27.3620,-90.1810,73.1,174.0,13.2,8.4,'11111222,11111222,11111222' 
ADCP,ioos:station:wmo:42379:1,2009-07-02T08:53:00Z,27.3620,-90.1810,73.1,176.0,14.8,8.4,'11111222,11111222,11111222' 
ADCP,ioos:station:wmo:42379:1,2009-07-02T09:13:00Z,27.3620,-90.1810,73.1,190.0,11.8,7.9,'11111222,11111222,11111222' 
ADCP,ioos:station:wmo:42379:1,2009-07-02T09:33:00Z,27.3620,-90.1810,73.1,181.0,16.8,8.0,'11111222,11111222,11111222' 
ADCP,ioos:station:wmo:42379:1,2009-07-02T09:53:00Z,27.3620,-90.1810,73.1,188.0,24.1,9.9,'11111222,11111222,11111222' 
ADCP,ioos:station:wmo:42379:1,2009-07-02T10:13:00Z,27.3620,-90.1810,73.1,178.0,21.3,9.3,'11111222,11111222,11111222' 
ADCP,ioos:station:wmo:42379:1,2009-07-02T10:33:00Z,27.3620,-90.1810,73.1,176.0,23.6,9.1,'11111222,11111222,11111222' 
ADCP,ioos:station:wmo:42379:1,2009-07-02T10:53:00Z,27.3620,-90.1810,73.1,176.0,20.2,10.0,'11111222,11111222,11111222' 
ADCP,ioos:station:wmo:42379:1,2009-07-02T11:13:00Z,27.3620,-90.1810,73.1,177.0,24.6,9.7,'11111222,11111222,11111222' 
ADCP,ioos:station:wmo:42379:1,2009-07-02T11:33:00Z,27.3620,-90.1810,73.1,183.0,20.4,10.0,'11111222,11111222,11111222' 
ADCP,ioos:station:wmo:42379:1,2009-07-02T11:53:00Z,27.3620,-90.1810,73.1,178.0,25.4,11.2,'11111222,11111222,11111222' 
ADCP,ioos:station:wmo:42379:1,2009-07-02T12:13:00Z,27.3620,-90.1810,73.1,184.0,15.5,12.3,'11111222,11111222,11111222' 
ADCP,ioos:station:wmo:42379:1,2009-07-02T12:33:00Z,27.3620,-90.1810,73.1,180.0,13.2,11.0,'11111222,11111222,11111222' 
ADCP,ioos:station:wmo:42379:1,2009-07-02T12:53:00Z,27.3620,-90.1810,73.1,180.0,17.8,12.1,'11111222,11111222,11111222' 
ADCP,ioos:station:wmo:42379:1,2009-07-02T13:13:00Z,27.3620,-90.1810,73.1,175.0,20.3,12.7,'11111222,11111222,11111222' 
ADCP,ioos:station:wmo:42379:1,2009-07-02T13:33:00Z,27.3620,-90.1810,73.2,180.0,5.8,10.4,'11133222,11111222,11111222' 
ADCP,ioos:station:wmo:42379:1,2009-07-02T13:53:00Z,27.3620,-90.1810,73.1,186.0,11.0,12.1,'11111222,11111222,11111222' 
ADCP,ioos:station:wmo:42379:1,2009-07-02T14:13:00Z,27.3620,-90.1810,73.2,170.0,21.0,13.1,'11111222,11111222,11111222' 
ADCP,ioos:station:wmo:42379:1,2009-07-02T14:33:00Z,27.3620,-90.1810,73.2,172.0,28.4,12.9,'11111222,11111222,11111222' 
ADCP,ioos:station:wmo:42379:1,2009-07-02T14:53:00Z,27.3620,-90.1810,73.1,187.0,19.0,12.3,'11111222,11111222,11111222' 
ADCP,ioos:station:wmo:42379:1,2009-07-02T15:13:00Z,27.3620,-90.1810,73.1,185.0,21.7,8.4,'11111222,11111222,11111222' 
ADCP,ioos:station:wmo:42379:1,2009-07-02T15:33:00Z,27.3620,-90.1810,73.1,178.0,35.6,14.5,'11111222,11111222,11111222' 
ADCP,ioos:station:wmo:42379:1,2009-07-02T15:53:00Z,27.3620,-90.1810,73.2,319.0,12.5,12.0,'11111222,11111222,11111222' 
ADCP,ioos:station:wmo:42379:1,2009-07-02T16:13:00Z,27.3620,-90.1810,73.2,358.0,29.2,6.8,'11111222,11111222,11111222' 
ADCP,ioos:station:wmo:42379:1,2009-07-02T16:33:00Z,27.3620,-90.1810,73.2,12.0,16.6,8.1,'11111222,11111222,11111222' 
ADCP,ioos:station:wmo:42379:1,2009-07-02T16:53:00Z,27.3620,-90.1810,73.2,89.0,4.9,11.7,'11133222,11111222,11111222' 
ADCP,ioos:station:wmo:42379:1,2009-07-02T17:13:00Z,27.3620,-90.1810,73.2,128.0,9.3,17.8,'11133222,11111222,11111222' 
ADCP,ioos:station:wmo:42379:1,2009-07-02T17:33:00Z,27.3620,-90.1810,73.2,147.0,14.5,19.7,'11111222,11111222,11111222' 
ADCP,ioos:station:wmo:42379:1,2009-07-02T17:53:00Z,27.3620,-90.1810,73.2,183.0,10.2,17.4,'11111222,11111222,11111222' 
ADCP,ioos:station:wmo:42379:1,2009-07-02T18:13:00Z,27.3620,-90.1810,73.1,295.0,4.0,20.1,'11133222,11111222,11111222' 
ADCP,ioos:station:wmo:42379:1,2009-07-02T18:33:00Z,27.3620,-90.1810,73.2,346.0,16.4,21.9,'11111222,11111222,11111222' 
ADCP,ioos:station:wmo:42379:1,2009-07-02T18:53:00Z,27.3620,-90.1810,73.2,334.0,24.6,20.0,'11111222,11111222,11111222' 
ADCP,ioos:station:wmo:42379:1,2009-07-02T19:13:00Z,27.3620,-90.1810,73.2,349.0,29.1,19.8,'11111222,11111222,11111222' 
ADCP,ioos:station:wmo:42379:1,2009-07-02T19:33:00Z,27.3620,-90.1810,73.2,346.0,25.3,16.8,'11111222,11111222,11111222' 
ADCP,ioos:station:wmo:42379:1,2009-07-02T19:53:00Z,27.3620,-90.1810,73.2,348.0,21.6,15.6,'11111222,11111222,11111222' 
ADCP,ioos:station:wmo:42379:1,2009-07-02T20:13:00Z,27.3620,-90.1810,73.2,342.0,37.7,18.2,'11111222,11111222,11111222' 
ADCP,ioos:station:wmo:42379:1,2009-07-02T20:33:00Z,27.3620,-90.1810,73.2,349.0,34.7,18.2,'11111222,11111222,11111222' 
ADCP,ioos:station:wmo:42379:1,2009-07-02T20:53:00Z,27.3620,-90.1810,73.2,352.0,30.1,18.5,'11111222,11111222,11111222' 
ADCP,ioos:station:wmo:42379:1,2009-07-02T21:13:00Z,27.3620,-90.1810,73.2,349.0,35.6,16.7,'11111222,11111222,11111222' 
ADCP,ioos:station:wmo:42379:1,2009-07-02T21:33:00Z,27.3620,-90.1810,73.2,345.0,23.1,16.1,'11111222,11111222,11111222' 
ADCP,ioos:station:wmo:42379:1,2009-07-02T21:53:00Z,27.3620,-90.1810,73.2,86.0,2.8,21.0,'11133222,11111222,11111222' 
ADCP,ioos:station:wmo:42379:1,2009-07-02T22:13:00Z,27.3620,-90.1810,73.2,353.0,14.2,19.9,'11111222,11111222,11111222' 
ADCP,ioos:station:wmo:42379:1,2009-07-02T22:33:00Z,27.3620,-90.1810,73.2,311.0,8.5,20.2,'11133222,11111222,11111222' 
ADCP,ioos:station:wmo:42379:1,2009-07-02T22:53:00Z,27.3620,-90.1810,73.2,216.0,4.1,17.5,'11133222,11111222,11111222' 
ADCP,ioos:station:wmo:42379:1,2009-07-02T23:13:00Z,27.3620,-90.1810,73.2,60.0,3.9,16.6,'11133222,11111222,11111222' 
ADCP,ioos:station:wmo:42379:1,2009-07-02T23:33:00Z,27.3620,-90.1810,73.2,7.0,9.5,15.0,'11133222,11111222,11111222' 
ADCP,ioos:station:wmo:42379:1,2009-07-02T23:53:00Z,27.3620,-90.1810,73.2,136.0,3.5,14.7,'11133222,11111222,11111222' 
ADCP,ioos:station:wmo:42379:1,2009-07-03T00:13:00Z,27.3620,-90.1810,73.2,189.0,4.0,17.0,'11133222,11111222,11111222' 
ADCP,ioos:station:wmo:42379:1,2009-07-03T00:33:00Z,27.3620,-90.1810,73.2,69.0,3.1,17.0,'11133222,11111222,11111222' 
ADCP,ioos:station:wmo:42379:1,2009-07-03T00:53:00Z,27.3620,-90.1810,73.2,85.0,1.2,18.0,'11133222,11111222,11111222' 
ADCP,ioos:station:wmo:42379:1,2009-07-03T01:13:00Z,27.3620,-90.1810,73.2,354.0,3.1,16.7,'11133222,11111222,11111222' 
ADCP,ioos:station:wmo:42379:1,2009-07-03T01:33:00Z,27.3620,-90.1810,73.2,41.0,2.9,16.4,'11133222,11111222,11111222' 
ADCP,ioos:station:wmo:42379:1,2009-07-03T01:53:00Z,27.3620,-90.1810,73.2,6.0,8.5,15.6,'11133222,11111222,11111222' 
ADCP,ioos:station:wmo:42379:1,2009-07-03T02:13:00Z,27.3620,-90.1810,73.2,4.0,7.5,14.8,'11133222,11111222,11111222' 
ADCP,ioos:station:wmo:42379:1,2009-07-03T02:33:00Z,27.3620,-90.1810,73.2,352.0,6.1,15.0,'11133222,11111222,11111222' 
ADCP,ioos:station:wmo:42379:1,2009-07-03T02:53:00Z,27.3620,-90.1810,73.2,221.0,4.5,12.5,'11133222,11111222,11111222' 
ADCP,ioos:station:wmo:42379:1,2009-07-03T03:13:00Z,27.3620,-90.1810,73.2,185.0,13.8,14.3,'11111222,11111222,11111222' 
ADCP,ioos:station:wmo:42379:1,2009-07-03T03:33:00Z,27.3620,-90.1810,73.2,173.0,22.2,15.2,'11111222,11111222,11111222' 
ADCP,ioos:station:wmo:42379:1,2009-07-03T03:53:00Z,27.3620,-90.1810,73.2,172.0,28.7,15.7,'11111222,11111222,11111222' 
ADCP,ioos:station:wmo:42379:1,2009-07-03T04:13:00Z,27.3620,-90.1810,73.2,176.0,26.1,15.6,'11111222,11111222,11111222' 
ADCP,ioos:station:wmo:42379:1,2009-07-03T04:33:00Z,27.3620,-90.1810,73.2,172.0,35.8,16.7,'11111222,11111222,11111222' 
ADCP,ioos:station:wmo:42379:1,2009-07-03T04:53:00Z,27.3620,-90.1810,73.2,171.0,34.0,15.7,'11111222,11111222,11111222' 
ADCP,ioos:station:wmo:42379:1,2009-07-03T05:13:00Z,27.3620,-90.1810,73.2,166.0,26.1,16.3,'11111222,11111222,11111222' 
ADCP,ioos:station:wmo:42379:1,2009-07-03T05:33:00Z,27.3620,-90.1810,73.2,165.0,27.8,17.1,'11111222,11111222,11111222' 
ADCP,ioos:station:wmo:42379:1,2009-07-03T05:53:00Z,27.3620,-90.1810,73.2,170.0,20.0,17.5,'11111222,11111222,11111222' 
ADCP,ioos:station:wmo:42379:1,2009-07-03T06:13:00Z,27.3620,-90.1810,73.2,165.0,19.9,16.6,'11111222,11111222,11111222' 
ADCP,ioos:station:wmo:42379:1,2009-07-03T06:33:00Z,27.3620,-90.1810,73.2,165.0,21.0,17.1,'11111222,11111222,11111222' 
ADCP,ioos:station:wmo:42379:1,2009-07-03T06:53:00Z,27.3620,-90.1810,73.2,164.0,17.9,17.3,'11111222,11111222,11111222' 
ADCP,ioos:station:wmo:42379:1,2009-07-03T07:13:00Z,27.3620,-90.1810,73.2,162.0,24.5,16.4,'11111222,11111222,11111222' 
ADCP,ioos:station:wmo:42379:1,2009-07-03T07:33:00Z,27.3620,-90.1810,73.2,157.0,14.8,15.3,'11111222,11111222,11111222' 
ADCP,ioos:station:wmo:42379:1,2009-07-03T07:53:00Z,27.3620,-90.1810,73.2,169.0,17.7,14.9,'11111222,11111222,11111222' 
ADCP,ioos:station:wmo:42379:1,2009-07-03T08:13:00Z,27.3620,-90.1810,73.2,163.0,12.6,15.9,'11111222,11111222,11111222' 
ADCP,ioos:station:wmo:42379:1,2009-07-03T08:33:00Z,27.3620,-90.1810,73.2,162.0,17.5,16.3,'11111222,11111222,11111222' 
ADCP,ioos:station:wmo:42379:1,2009-07-03T08:53:00Z,27.3620,-90.1810,73.2,171.0,9.8,14.5,'11133222,11111222,11111222' 
ADCP,ioos:station:wmo:42379:1,2009-07-03T09:13:00Z,27.3620,-90.1810,73.2,160.0,16.4,15.3,'11111222,11111222,11111222' 
ADCP,ioos:station:wmo:42379:1,2009-07-03T09:33:00Z,27.3620,-90.1810,73.2,160.0,19.8,14.6,'11111222,11111222,11111222' 
ADCP,ioos:station:wmo:42379:1,2009-07-03T09:53:00Z,27.3620,-90.1810,73.2,167.0,13.6,13.2,'11111222,11111222,11111222' 
ADCP,ioos:station:wmo:42379:1,2009-07-03T10:13:00Z,27.3620,-90.1810,73.2,170.0,13.1,13.9,'11111222,11111222,11111222' 
ADCP,ioos:station:wmo:42379:1,2009-07-03T10:33:00Z,27.3620,-90.1810,73.2,164.0,19.2,14.5,'11111222,11111222,11111222' 
ADCP,ioos:station:wmo:42379:1,2009-07-03T10:53:00Z,27.3620,-90.1810,73.2,155.0,16.9,12.6,'11111222,11111222,11111222' 
ADCP,ioos:station:wmo:42379:1,2009-07-03T11:13:00Z,27.3620,-90.1810,73.2,163.0,14.5,13.2,'11111222,11111222,11111222' 
ADCP,ioos:station:wmo:42379:1,2009-07-03T11:33:00Z,27.3620,-90.1810,73.2,152.0,13.2,13.1,'11111222,11111222,11111222' 
ADCP,ioos:station:wmo:42379:1,2009-07-03T11:53:00Z,27.3620,-90.1810,73.2,144.0,9.0,13.2,'11133222,11111222,11111222' 
ADCP,ioos:station:wmo:42379:1,2009-07-03T12:13:00Z,27.3620,-90.1810,73.2,138.0,7.4,10.8,'11133222,11111222,11111222' 
ADCP,ioos:station:wmo:42379:1,2009-07-03T12:33:00Z,27.3620,-90.1810,73.2,186.0,6.0,8.0,'11133222,11111222,11111222' 
ADCP,ioos:station:wmo:42379:1,2009-07-03T12:53:00Z,27.3620,-90.1810,73.1,29.0,5.3,8.7,'11133222,11111222,11111222' 
ADCP,ioos:station:wmo:42379:1,2009-07-03T13:13:00Z,27.3620,-90.1810,73.1,144.0,1.7,8.6,'11133222,11111222,11111222' 
ADCP,ioos:station:wmo:42379:1,2009-07-03T13:33:00Z,27.3620,-90.1810,73.1,266.0,1.5,11.0,'11133222,11111222,11111222' 
ADCP,ioos:station:wmo:42379:1,2009-07-03T13:53:00Z,27.3620,-90.1810,73.1,170.0,18.9,8.9,'11111222,11111222,11111222' 
ADCP,ioos:station:wmo:42379:1,2009-07-03T14:13:00Z,27.3620,-90.1810,73.1,163.0,28.7,13.1,'11111222,11111222,11111222' 
ADCP,ioos:station:wmo:42379:1,2009-07-03T14:33:00Z,27.3620,-90.1810,73.1,347.0,17.4,12.6,'11111222,11111222,11111222' 
ADCP,ioos:station:wmo:42379:1,2009-07-03T14:53:00Z,27.3620,-90.1810,73.1,256.0,3.4,10.2,'11133222,11111222,11111222' 
ADCP,ioos:station:wmo:42379:1,2009-07-03T15:13:00Z,27.3620,-90.1810,73.1,263.0,6.1,7.3,'11133222,11111222,11111222' 
ADCP,ioos:station:wmo:42379:1,2009-07-03T15:33:00Z,27.3620,-90.1810,73.1,313.0,2.6,11.4,'11133222,11111222,11111222' 
ADCP,ioos:station:wmo:42379:1,2009-07-03T15:53:00Z,27.3620,-90.1810,73.1,4.0,1.6,9.7,'11133222,11111222,11111222' 
ADCP,ioos:station:wmo:42379:1,2009-07-03T16:13:00Z,27.3620,-90.1810,73.1,174.0,19.7,8.2,'11111222,11111222,11111222' 
ADCP,ioos:station:wmo:42379:1,2009-07-03T16:33:00Z,27.3620,-90.1810,73.1,205.0,8.1,6.5,'11133222,11111222,11111222' 
ADCP,ioos:station:wmo:42379:1,2009-07-03T16:53:00Z,27.3620,-90.1810,73.1,326.0,15.6,10.3,'11111222,11111222,11111222' 
ADCP,ioos:station:wmo:42379:1,2009-07-03T17:13:00Z,27.3620,-90.1810,73.1,307.0,11.1,8.4,'11111222,11111222,11111222' 
ADCP,ioos:station:wmo:42379:1,2009-07-03T17:33:00Z,27.3620,-90.1810,73.1,337.0,6.5,8.9,'11133222,11111222,11111222' 
ADCP,ioos:station:wmo:42379:1,2009-07-03T17:53:00Z,27.3620,-90.1810,73.1,351.0,14.0,10.1,'11111222,11111222,11111222' 
ADCP,ioos:station:wmo:42379:1,2009-07-03T18:13:00Z,27.3620,-90.1810,73.1,2.0,3.5,6.5,'11133222,11111222,11111222' 
ADCP,ioos:station:wmo:42379:1,2009-07-03T18:33:00Z,27.3620,-90.1810,73.1,359.0,9.3,7.2,'11133222,11111222,11111222' 
ADCP,ioos:station:wmo:42379:1,2009-07-03T18:53:00Z,27.3620,-90.1810,73.1,205.0,3.3,7.5,'11133222,11111222,11111222' 